Overview Statistics Trail Chart Weather Telemetry Raw packets
 

This is the latest recevied weather packets stored in our database for station/object HG5CJW-10. If no packets are shown the sender has not sent any weather packets the latest 10 day(s).

<< 26 27 28 29 30 31 32 >>
Time Temp. Humidity Pressure Rain* Wind** Luminosity Snow
1787957701 23.89° C 45% 1033.9 hPa - - - -
1787956801 23.89° C 44% 1034.2 hPa - - - -
1787955901 23.89° C 45% 1034.2 hPa - - - -
1787955001 23.33° C 45% 1033.6 hPa - - - -
1787954101 23.89° C 45% 1034.2 hPa - - - -
1787952301 24.44° C 44% 1034.5 hPa - - - -
1787945995 25.56° C 44% 1034.9 hPa - - - -
1787945095 25.56° C 44% 1035.1 hPa - - - -
1787944195 25.56° C 43% 1035.5 hPa - - - -
1787943295 26.11° C 43% 1035.4 hPa - - - -
1787942395 26.11° C 43% 1035.4 hPa - - - -
1787940594 26.67° C 42% 1035.5 hPa - - - -
1787938794 27.22° C 41% 1035.5 hPa - - - -
1787937894 27.22° C 41% 1035.3 hPa - - - -
1787936994 27.22° C 41% 1035.4 hPa - - - -
1787935194 27.78° C 41% 1035.4 hPa - - - -
1787934294 27.22° C 41% 1034.9 hPa - - - -
1787933389 27.22° C 41% 1034.9 hPa - - - -
1787931588 27.78° C 41% 1035.6 hPa - - - -
1787930688 27.78° C 41% 1035.5 hPa - - - -
1787929788 27.78° C 40% 1035.8 hPa - - - -
1787927088 27.22° C 40% 1036.4 hPa - - - -
1787926188 27.22° C 41% 1036.3 hPa - - - -
1787923488 26.67° C 41% 1036.1 hPa - - - -
1787920788 26.11° C 41% 1037.1 hPa - - - -

* Rain since midnight (hover to see other rain measurements)
** Current wind speed in m/s (hover to see current wind gust speed)